Regional Weather Roundup
Issued by NWS

Current Version | Previous Version | Text Only | Print | Product List | Glossary On
Versions: 1 2 3 4 5 6 7 8 9 10 11 12 13 14 15 16 17 18 19 20 21 22 23 24 25 26 27 28 29 30 31 32 33 34 35 36 37 38 39 40 41 42 43 44 45 46 47 48 49 50
000
ASUS45 KCYS 201310
RWRWY

WYOMING REGIONAL WEATHER ROUNDUP
NATIONAL WEATHER SERVICE CHEYENNE WY
700 AM MDT WED AUG 20 2014

NOTE:  "FAIR" INDICATES FEW OR NO CLOUDS BELOW 12,000 FEET
WITH NO SIGNIFICANT WEATHER AND/OR OBSTRUCTIONS TO VISIBILITY.

WYZ001-201400-
YELLOWSTONE NATIONAL PARK

CITY           SKY/WX    TMP DP  RH WIND       PRES   REMARKS
LK YELLOWSTONE   N/A     38  37  97 CALM      30.11R
W YELLOWSTONE  NOT AVBL

$$
WYZ002>013-054>058-071-098>099-201400-
NORTHERN WYOMING

CITY           SKY/WX    TMP DP  RH WIND       PRES   REMARKS
JACKSON        CLOUDY    45  43  93 CALM      30.06R
CODY           CLOUDY    66  43  42 SW7       29.88R
GREYBULL       CLOUDY    64  55  72 SE3       29.80R
WORLAND        MOCLDY    60  53  77 S8        29.82R
SHERIDAN       CLOUDY    66  49  54 NW7       29.81R
BUFFALO        MOCLDY    66  44  45 N12       29.85R
GILLETTE       PTCLDY    66  47  50 SW14      29.78R
HULETT         FAIR      72  50  46 MISG      29.78
NEWCASTLE      FAIR      68  45  42 E3        29.82

$$
WYZ014>020-022>026-101>103-201400-
CENTRAL WYOMING

CITY           SKY/WX    TMP DP  RH WIND       PRES   REMARKS
BIG PINEY      PTCLDY    43  40  89 E3        30.08R
PINEDALE       MOSUNNY   41  41 100 W6        30.08R
DUBOIS         FAIR      45  39  81 NW10      30.04R
LANDER         CLEAR     56  43  61 W9        29.92R
RIVERTON       CLEAR     57  42  57 NW12      29.92R
CASPER         MOCLDY    62  51  67 SW14      29.89R
DOUGLAS        CLOUDY    61  56  83 S10       29.89R

$$
WYZ021-027>030-104>119-201400-
SOUTHERN WYOMING

CITY           SKY/WX    TMP DP  RH WIND       PRES   REMARKS
EVANSTON       FOG       53  52  96 S9        30.10R VSB 1
KEMMERER       CLOUDY    50  45  81 W8        30.10R
FORT BRIDGER   CLOUDY    55  53  94 SW16      30.12R
ROCK SPRINGS   PTCLDY    51  48  89 SW12      30.06R
DIXON          LGT RAIN  56  55  94 SW9       30.09R
RAWLINS        PTCLDY    54  52  93 SW10      30.04R
SARATOGA       LGT RAIN  54  52  94 MISG      30.07S
LARAMIE        PTCLDY    54  49  83 S3        30.05R
CHEYENNE       CLOUDY    63  49  60 W9        29.97R
TORRINGTON     LGT RAIN  67  55  65 NW10      29.83F
PINE BLUFFS    PTSUNNY   59  54  82 CALM      29.92R

$$



USA.gov is the U.S. government's official web portal to all federal, state and local government web resources and services.